TimeMST,TemperatureF,Dew PointF,Humidity,Sea Level PressureIn,VisibilityMPH,Wind Direction,Wind SpeedMPH,Gust SpeedMPH,PrecipitationIn,Events,Conditions,WindDirDegrees,DateUTC
12:53 AM,37.0,27.0,67,30.12,10.0,North,3.5,-,N/A,,Clear,350,2013-01-23 07:53:00
1:53 AM,37.9,26.1,62,30.11,10.0,SSW,4.6,-,N/A,,Clear,210,2013-01-23 08:53:00
2:53 AM,32.0,25.0,75,30.12,10.0,SE,4.6,-,N/A,,Clear,130,2013-01-23 09:53:00
3:53 AM,30.0,24.1,79,30.13,10.0,Calm,Calm,-,N/A,,Clear,0,2013-01-23 10:53:00
4:53 AM,30.0,24.1,79,30.16,10.0,NNW,3.5,-,N/A,,Clear,330,2013-01-23 11:53:00
5:53 AM,28.0,21.9,78,30.19,10.0,WNW,4.6,-,N/A,,Clear,300,2013-01-23 12:53:00
6:53 AM,30.0,21.0,69,30.23,10.0,West,5.8,-,N/A,,Clear,280,2013-01-23 13:53:00
7:53 AM,36.0,27.0,70,30.22,10.0,South,4.6,-,N/A,,Clear,190,2013-01-23 14:53:00
8:53 AM,46.0,24.1,42,30.25,10.0,ENE,4.6,-,N/A,,Clear,70,2013-01-23 15:53:00
9:53 AM,51.1,19.9,29,30.26,10.0,NNE,3.5,-,N/A,,Clear,20,2013-01-23 16:53:00
10:53 AM,57.0,23.0,27,30.24,10.0,Calm,Calm,-,N/A,,Clear,0,2013-01-23 17:53:00
11:53 AM,63.0,19.0,18,30.19,10.0,SE,4.6,-,N/A,,Clear,130,2013-01-23 18:53:00
12:53 PM,68.0,17.1,14,30.13,10.0,SSE,8.1,-,N/A,,Clear,160,2013-01-23 19:53:00
1:53 PM,72.0,15.1,11,30.09,10.0,SSE,9.2,-,N/A,,Clear,160,2013-01-23 20:53:00
2:53 PM,73.4,14.0,10,30.16,10.0,South,8.1,-,N/A,,Clear,170,2013-01-23 21:53:00
3:53 PM,75.9,10.0,8,30.09,10.0,SW,11.5,17.3,N/A,,Clear,230,2013-01-23 22:53:00
4:53 PM,70.0,12.0,11,30.09,10.0,SSW,5.8,-,N/A,,Clear,210,2013-01-23 23:53:00
5:53 PM,57.2,17.6,21,30.16,10.0,SW,4.6,-,N/A,,Clear,220,2013-01-24 00:53:00
6:53 PM,48.9,19.0,31,30.14,10.0,SW,9.2,-,N/A,,Clear,230,2013-01-24 01:53:00
7:53 PM,48.9,19.9,32,30.14,10.0,SW,6.9,-,N/A,,Clear,220,2013-01-24 02:53:00
8:53 PM,52.0,19.9,28,30.12,10.0,SW,11.5,-,N/A,,Clear,230,2013-01-24 03:53:00
9:53 PM,45.0,21.0,39,30.14,10.0,East,5.8,-,N/A,,Clear,80,2013-01-24 04:53:00
10:53 PM,42.1,21.9,45,30.14,10.0,Calm,Calm,-,N/A,,Clear,0,2013-01-24 05:53:00
11:53 PM,37.9,21.9,53,30.13,10.0,Calm,Calm,-,N/A,,Clear,0,2013-01-24 06:53:00